Location: Kershaw
(34.5481°N, 80.5823°W)
Time: 08:02:31
(UTC+00:00)

Tiros 1 despin weight - Pass Details

Date: 07 October 2022
Orbit: 590 x 637 km, 48.2° (Epoch: 28 November)

Event Time Altitude Azimuth Distance (km) Brightness Sun altitude
Rises 21:00:56 0° 282° (WNW) 2,833 ? 22.4°
Reaches altitude 10° 21:03:52 10° 302° (WNW) 1,940 ? 21.8°
Maximum altitude 21:06:54 18° 345° (NNW) 1,508 ? 21.3°
Drops below altitude 10° 21:09:59 10° 29° (NNE) 1,963 ? 20.7°
Sets 21:12:58 0° 49° (NE) 2,880 ? 20.1°
